Location: Aranbee
(34.0885°N, 118.2342°W)
Time: 09:29:40
(UTC+00:00)

Courier 1B Rocket - Pass Details

Date: 28 November 2020
Orbit: 920 x 1202 km, 28.2° (Epoch: 27 January)

Event Time Altitude Azimuth Distance (km) Brightness Sun altitude
Rises 17:30:49 0° 270° (W) 4,041 7.9 26.4°
Reaches altitude 10° 17:33:52 10° 263° (W) 3,047 7.4 26.7°
Maximum altitude 17:40:49 41° 196° (SSW) 1,540 7.0 27.5°
Drops below altitude 10° 17:47:19 10° 128° (SE) 2,855 8.8 28.2°
Sets 17:50:06 0° 121° (ESE) 3,763 9.0 28.5°
